Flag for Germany Weather past 2 weeks in Leverkusen, North Rhine-Westphalia, Germany

Now
41 °F

Light rain. Broken clouds.


Feels Like: 34 °F
Forecast: 33 / 53 °F
Wind: 13 mph from West

Location: Koeln / Bonn

Current Time: Mar 27, 2015 at 8:05:26 AM

Latest Report: Mar 27, 2015 at 7:20 AM


Visibility: N/A

Pressure: 29.95 "Hg

Humidity: 81%

Dew point: 36 °F

Location of LeverkusenLocation

Historic Weather in Leverkusen — Graph

°F

Leverkusen temperature yesterday

Maximum temperature yesterday: 50 °F (at 1:20 PM)
Minimum temperature yesterday: 39 °F (at 6:50 PM)
Average temperature yesterday: 43 °F

Past Weeks' High & Low Weather Summary

 TemperatureHumidityPressure
High66 °F (Mar 17, 3:50 PM)100% (Mar 16, 4:50 AM)30.48 "Hg (Mar 16, 4:50 AM)
Low27 °F (Mar 12, 6:20 AM)28% (Mar 17, 3:50 PM)29.65 "Hg (Mar 25, 12:50 AM)
Average43 °F74%30.13 "Hg
* Reported Mar 12 6:20 AM — Mar 27 6:50 AM, Leverkusen, Weather by CustomWeather, © 2015

Note: Actual official high and low records may vary slightly from our data, if they occured in-between our weather recording intervals... More about our weather records

Advertising

Leverkusen weather history for previous 24 hours

 ConditionsComfort  
Time TempWeatherWind HumidityBarometerVisibility
6:50 AM
Fri, Mar 27
41 °FLight rain. Partly sunny.12 mph81%29.95 "HgN/A
6:20 AM41 °FPartly sunny.13 mph81%29.92 "HgN/A
5:50 AM41 °FPartly cloudy.15 mph81%29.92 "HgN/A
5:20 AM41 °FPartly cloudy.10 mph81%29.92 "HgN/A
3:50 AM43 °FPartly cloudy.12 mph81%29.86 "HgN/A
3:20 AM43 °FPassing clouds.13 mph81%29.86 "HgN/A
2:50 AM43 °FPassing clouds.14 mph81%29.86 "HgN/A
2:20 AM45 °FClear.14 mph81%29.83 "Hg10 mi
1:50 AM45 °FClear.12 mph81%29.83 "Hg10 mi
1:20 AM45 °FPassing clouds.12 mph87%29.83 "HgN/A
12:50 AM43 °FPassing clouds.7 mph93%29.80 "HgN/A
12:20 AM43 °FPartly cloudy.8 mph93%29.80 "HgN/A
11:50 PM
Thu, Mar 26
43 °FPassing clouds.8 mph93%29.80 "HgN/A
11:20 PM43 °FPartly cloudy.7 mph87%29.80 "HgN/A
10:50 PM41 °FScattered showers. Passing clouds.6 mph93%29.77 "HgN/A
10:20 PM41 °FLight rain. Overcast.8 mph93%29.77 "HgN/A
9:50 PM41 °FLight rain. Overcast.8 mph87%29.77 "HgN/A
9:20 PM39 °FRain. Passing clouds.9 mph93%29.77 "HgN/A
8:50 PM39 °FLight rain. Passing clouds.7 mph93%29.77 "HgN/A
8:20 PM41 °FLight rain. Passing clouds.9 mph87%29.77 "HgN/A
7:50 PM39 °FLight rain. Passing clouds.8 mph93%29.77 "HgN/A
7:20 PM39 °FLight rain. Mostly cloudy.7 mph93%29.77 "HgN/A
6:50 PM39 °FLight rain. More clouds than sun.8 mph93%29.77 "HgN/A
6:20 PM41 °FLight rain. Cloudy.9 mph81%29.77 "HgN/A
5:50 PM41 °FLight rain. More clouds than sun.10 mph81%29.77 "HgN/A
5:20 PM43 °FLight rain. More clouds than sun.13 mph71%29.77 "HgN/A
4:50 PM43 °FLight rain. More clouds than sun.12 mph66%29.77 "HgN/A
4:20 PM45 °FLight rain. More clouds than sun.18 mph53%29.74 "HgN/A
3:50 PM48 °FLight rain. More clouds than sun.21 mph40%29.71 "HgN/A
3:20 PM50 °FBroken clouds.13 mph37%29.71 "HgN/A
2:50 PM50 °FLight rain. Broken clouds.8 mph37%29.71 "HgN/A
2:20 PM50 °FBroken clouds.7 mph40%29.74 "HgN/A
1:50 PM50 °FBroken clouds.6 mph43%29.74 "HgN/A
1:20 PM50 °FPartly sunny.7 mph47%29.74 "HgN/A
12:50 PM48 °FPartly sunny.7 mph50%29.77 "HgN/A
12:20 PM46 °FBroken clouds.7 mph50%29.77 "HgN/A
11:50 AM46 °FPartly sunny.8 mph50%29.80 "HgN/A
11:20 AM46 °FScattered clouds.8 mph50%29.80 "HgN/A
10:50 AM45 °FPartly sunny.8 mph61%29.80 "HgN/A
10:20 AM43 °FPartly sunny.6 mph61%29.80 "HgN/A
9:50 AM43 °FPartly sunny.7 mph66%29.80 "HgN/A
9:20 AM41 °FPartly sunny.7 mph81%29.80 "HgN/A
8:50 AM41 °FBroken clouds.7 mph81%29.83 "HgN/A
8:20 AM41 °FBroken clouds.9 mph81%29.83 "HgN/A
Weather by CustomWeather, © 2015

See weather overviewHow to use our weather pages